Weather History for Doylestown, PA

Change the Weather History Date:

Thursday, August 8, 2013

  Actual Average (KTTN) Record (KTTN)
Temperature  
Mean Temperature 75 °F 75 °F  
Max Temperature 84 °F 85 °F 98 °F (1983)
Min Temperature 68 °F 65 °F 53 °F (1994)
Degree Days  
Heating Degree Days 0 0  
Month to date heating degree days 0  
Since 1 June heating degree days 24  
Since 1 July heating degree days 0  
Cooling Degree Days 10 10  
Month to date cooling degree days 81  
Year to date cooling degree days 658  
Since 1 June cooling degree days 601  
Growing Degree Days 25 (Base 50)    
Moisture  
Dew Point 70 °F    
Average Humidity 88    
Maximum Humidity 100    
Minimum Humidity 69    
Precipitation  
Precipitation 0.10 in 0.14 in 2.86 in (1927)
Month to date precipitation 1.16  
Year to date precipitation 28.04  
Sea Level Pressure  
Sea Level Pressure 30.02 in    
Wind  
Wind Speed 2 mph (South)    
Max Wind Speed 10 mph    
Max Gust Speed 16 mph    
Visibility 9 miles    
Events Rain    
T = Trace of Precipitation, MM = Missing Value Source: NWS Daily Summary

Daily Weather History Graph

Daily Weather History Graph

Search for Another Location

Airport:

Trip Planner

Search our weather history database for the weather conditions in past years. The results will help you decide how hot, cold, wet, or windy it might be!

Date:

Astronomy

Aug. 08, 2013 Rise Set
Actual Time 6:04 AM EDT 8:06 PM EDT
Civil Twilight 5:35 AM EDT 8:36 PM EDT
Nautical Twilight 4:58 AM EDT 9:12 PM EDT
Astronomical Twilight 4:19 AM EDT 9:51 PM EDT
Moon 7:49 AM EDT (8/8) 8:43 PM EDT (8/8)
Length of Visible Light 15h 01m
Length of Day
14h 01m
Waxing Crescent, 3% of the Moon is Illuminated
Aug 8
Waxing Crescent
Aug 14
First Quarter
Aug 20
Full
Aug 28
Last Quarter
Sep 5
New

Hourly Weather History & Observations

Time (EDT) Temp. Heat Index Dew Point Humidity Pressure Visibility Wind Dir Wind Speed Gust Speed Precip Events Conditions
12:54 AM 69.1 °F - 68.0 °F 96% 30.04 in 10.0 mi Calm Calm - 0.09 in Rain Light Rain
1:54 AM 69.1 °F - 68.0 °F 96% 30.02 in 10.0 mi South 3.5 mph - 0.01 in Rain Light Rain
2:54 AM 68.0 °F - 66.9 °F 96% 30.03 in 10.0 mi South 3.5 mph - 0.00 in   Mostly Cloudy
3:54 AM 68.0 °F - 68.0 °F 100% 30.01 in 10.0 mi Calm Calm - N/A   Overcast
4:38 AM 68.0 °F - 66.2 °F 94% 30.03 in 10.0 mi Calm Calm - N/A   Mostly Cloudy
4:50 AM 68.0 °F - 66.2 °F 94% 30.03 in 10.0 mi Calm Calm - N/A   Mostly Cloudy
4:54 AM 68.0 °F - 66.9 °F 96% 30.02 in 10.0 mi Calm Calm - N/A   Mostly Cloudy
5:18 AM 68.0 °F - 68.0 °F 100% 30.04 in 9.0 mi Calm Calm - N/A   Overcast
5:54 AM 68.0 °F - 68.0 °F 100% 30.03 in 8.0 mi Calm Calm - N/A   Overcast
6:17 AM 68.0 °F - 68.0 °F 100% 30.04 in 8.0 mi Calm Calm - N/A   Overcast
6:38 AM 69.8 °F - 68.0 °F 94% 30.05 in 9.0 mi Calm Calm - N/A   Overcast
6:52 AM 69.8 °F - 69.8 °F 100% 30.05 in 6.0 mi Calm Calm - N/A   Overcast
6:54 AM 69.1 °F - 69.1 °F 100% 30.04 in 6.0 mi Calm Calm - N/A   Overcast
7:16 AM 69.8 °F - 69.8 °F 100% 30.05 in 6.0 mi Calm Calm - N/A   Overcast
7:54 AM 70.0 °F - 69.1 °F 97% 30.04 in 7.0 mi Calm Calm - N/A   Overcast
8:54 AM 71.1 °F - 70.0 °F 96% 30.05 in 10.0 mi Calm Calm - N/A   Overcast
9:15 AM 71.6 °F - 71.6 °F 100% 30.06 in 10.0 mi Calm Calm - N/A   Overcast
9:47 AM 71.6 °F - 71.6 °F 100% 30.06 in 10.0 mi South 3.5 mph - N/A   Overcast
9:54 AM 73.0 °F - 71.1 °F 93% 30.04 in 10.0 mi SSW 3.5 mph - N/A   Overcast
10:54 AM 75.9 °F - 71.1 °F 85% 30.04 in 10.0 mi Variable 3.5 mph - N/A   Mostly Cloudy
11:54 AM 80.1 °F 83.8 °F 72.0 °F 76% 30.02 in 10.0 mi Variable 5.8 mph - N/A   Mostly Cloudy
12:15 PM 80.6 °F 84.6 °F 71.6 °F 74% 30.03 in 10.0 mi Variable 6.9 mph - N/A   Mostly Cloudy
12:54 PM 81.0 °F 84.4 °F 70.0 °F 69% 30.01 in 10.0 mi SSW 10.4 mph - N/A   Mostly Cloudy
1:54 PM 80.1 °F 83.2 °F 70.0 °F 71% 30.02 in 10.0 mi SSW 9.2 mph - N/A   Mostly Cloudy
2:54 PM 82.0 °F 86.3 °F 71.1 °F 69% 30.01 in 10.0 mi SSW 8.1 mph - N/A   Mostly Cloudy
3:54 PM 78.1 °F - 70.0 °F 76% 30.00 in 10.0 mi SSE 4.6 mph - 0.00 in   Mostly Cloudy
4:54 PM 81.0 °F 85.2 °F 72.0 °F 74% 29.98 in 10.0 mi South 5.8 mph - N/A   Partly Cloudy
5:54 PM 80.1 °F 83.6 °F 71.1 °F 74% 29.98 in 10.0 mi Variable 5.8 mph - N/A   Partly Cloudy
6:54 PM 80.1 °F 83.6 °F 71.1 °F 74% 29.98 in 10.0 mi South 9.2 mph 16.1 mph N/A   Clear
7:54 PM 79.0 °F - 70.0 °F 74% 30.00 in 10.0 mi South 8.1 mph - N/A   Clear
8:54 PM 77.0 °F - 69.1 °F 76% 30.01 in 10.0 mi South 4.6 mph - N/A   Clear
9:54 PM 75.9 °F - 71.1 °F 85% 30.01 in 10.0 mi Variable 6.9 mph - N/A   Scattered Clouds
10:42 PM 75.2 °F - 71.6 °F 89% 30.03 in 10.0 mi South 4.6 mph - N/A   Overcast
10:54 PM 75.0 °F - 71.1 °F 87% 30.01 in 10.0 mi SSE 4.6 mph - N/A   Overcast
11:01 PM 75.2 °F - 71.6 °F 89% 30.03 in 10.0 mi Calm Calm - 0.00 in Rain Light Rain
11:18 PM 75.2 °F - 71.6 °F 89% 30.02 in 10.0 mi South 3.5 mph - 0.00 in   Overcast
11:52 PM 75.2 °F - 71.6 °F 89% 30.01 in 10.0 mi South 5.8 mph - 0.00 in   Mostly Cloudy
11:54 PM 75.0 °F - 71.1 °F 87% 30.00 in 10.0 mi South 4.6 mph - 0.00 in   Scattered Clouds